EHI
54 52 47 41 38 38 36 35 34 32 28 26 25 22 16 14 16 16 13 9 7 8 10 11 9 8 7 7 6 4 3 2 1 1 1 1 2 2 3 2 1 1 1
53 51 46 40 38 38 37 35 33 31 28 25 24 22 17 15 16 16 12 9 8 8 9 9 7 6 6 5 5 4 3 2 1 0 0 0 1 1 2 2 1 1 1
51 50 47 42 40 39 38 36 33 30 27 24 22 20 17 15 15 14 11 9 8 7 6 5 4 4 4 3 3 3 2 1 0 0 0 0 0 0 1 1 0 0 1
52 51 49 47 44 40 38 36 33 30 26 24 22 18 15 12 11 11 10 9 8 6 4 3 3 3 2 2 2 2 1 0 0 0 0 0 0 0 0 0 0 0 0
55 54 53 52 45 38 34 33 32 31 27 25 22 18 13 9 7 7 8 8 7 6 4 3 3 2 1 1 1 1 0 0 0 0 0 0 0 0 0 0 0 0 0
53 54 54 51 41 32 28 29 29 28 26 23 20 17 12 7 4 3 4 5 7 6 5 3 2 1 0 0 0 0 0 0 0 0 0 0 0 0 0 0 0 0 0
51 52 52 47 37 28 25 25 25 24 23 21 18 16 11 6 2 1 2 4 6 6 4 2 1 0 0 0 0 0 0 0 0 0 0 0 0 0 0 0 0 0 0
51 50 49 44 36 29 25 23 23 21 20 19 18 15 11 6 2 0 1 2 4 4 3 1 0 0 0 0 0 0 0 0 0 0 0 0 0 0 0 0 0 0 0
49 48 44 40 34 29 25 23 21 20 18 18 17 14 10 6 2 0 1 2 3 3 2 1 0 0 0 0 0 0 0 0 0 0 0 0 0 0 0 0 0 0 0
47 44 40 35 31 28 25 23 20 18 17 16 15 12 10 6 2 0 1 2 3 3 1 0 0 0 0 0 0 0 0 0 0 0 0 0 0 0 0 0 0 0 0
43 42 38 32 27 25 24 21 19 18 17 15 12 10 9 7 2 0 1 2 2 2 1 0 0 0 0 0 0 0 0 0 0 0 0 0 0 0 0 0 0 0 0
38 37 34 28 24 22 21 20 18 18 18 14 11 10 9 7 2 0 0 1 1 1 0 0 0 0 0 0 0 0 0 0 0 0 0 0 0 0 0 0 0 0 0
33 31 27 23 21 21 20 19 18 18 17 14 11 10 10 7 3 0 0 0 0 0 0 0 0 0 0 0 0 0 0 0 0 0 0 0 0 0 0 0 0 0 0
29 26 21 19 20 21 20 19 18 17 17 15 13 12 10 8 4 1 0 0 0 0 0 0 0 0 0 0 0 0 0 0 0 0 0 0 0 0 0 0 0 0 0
25 23 19 17 19 21 20 17 15 15 13 12 12 11 10 7 4 1 0 0 0 0 0 0 0 0 0 0 0 0 0 0 0 0 0 0 0 0 0 0 0 0 0
22 20 17 16 19 20 18 14 11 9 7 6 7 7 6 4 2 0 0 0 0 0 0 0 0 0 0 0 0 0 0 0 0 0 0 0 0 0 0 0 0 0 0
19 16 13 14 16 17 15 12 9 7 4 2 3 3 2 1 0 0 0 0 0 0 0 0 0 0 0 0 0 0 0 0 0 0 0 0 0 0 0 0 0 0 0
14 12 11 12 13 13 12 10 8 7 5 3 2 1 1 0 0 0 0 0 0 0 0 0 0 0 0 0 0 0 0 0 0 0 0 0 0 0 0 0 0 0 0
8 9 11 12 12 11 9 8 6 6 5 3 1 0 0 0 0 0 0 0 0 0 0 0 0 0 0 0 0 0 0 0 0 0 0 0 0 0 0 0 0 0 0
5 6 9 11 11 9 7 5 4 4 3 2 1 0 0 0 0 0 0 0 0 0 0 0 0 0 0 0 0 0 0 0 0 0 0 0 0 0 0 0 0 0 0
5 5 7 8 8 7 4 3 2 3 2 1 0 0 0 0 0 0 0 0 0 0 0 0 0 0 0 0 0 0 0 0 0 0 0 0 0 0 0 0 0 0 0
6 5 5 6 6 4 2 2 1 1 1 1 0 0 0 0 0 0 0 0 0 0 0 0 0 0 0 0 0 0 0 0 0 0 0 0 0 0 0 0 0 0 0
5 4 4 5 5 3 2 2 2 1 0 0 0 0 0 0 0 0 0 0 0 1 1 1 1 0 0 0 0 0 0 0 0 0 0 0 0 0 0 0 0 0 0
2 3 3 4 4 3 3 3 2 1 0 0 0 0 0 0 0 0 0 0 0 1 2 2 1 0 0 0 0 0 0 0 0 0 0 0 0 0 0 0 0 0 0
0 1 2 3 3 3 3 3 2 1 0 0 0 0 0 0 0 1 0 0 0 1 1 1 1 0 0 0 0 0 0 0 0 0 0 0 0 0 0 0 0 0 0
0 1 2 2 2 2 3 3 2 1 1 1 0 0 0 0 0 1 0 0 0 0 0 0 0 0 0 0 0 0 0 0 0 0 0 0 0 0 0 0 0 0 0
Wind_Speed
5 4 3 3 3 2 1 1 2 2 2 2 2 3 3 3 3 2 2 2 2 3 2 2 2 2 2 1 1 1 1 1 1 1 2 2 3 4 4 4 5 6 6
6 5 4 3 2 2 2 2 2 2 2 2 2 3 3 3 3 3 3 3 3 3 3 3 3 3 3 2 2 1 1 1 3 2 2 2 2 3 4 4 4 5 5
7 6 5 4 3 2 2 2 2 2 2 2 3 3 3 3 3 3 4 4 4 4 4 4 4 4 4 3 2 2 1 1 2 3 2 2 1 2 3 4 4 3 4
7 6 5 4 4 3 3 3 3 3 3 3 3 3 3 4 4 4 4 4 4 5 5 5 5 5 5 4 4 3 2 2 3 3 3 2 1 1 2 2 2 2 2
6 6 5 5 4 4 3 3 3 3 3 3 4 4 4 4 5 5 4 5 4 5 5 6 7 9 10 7 5 4 4 3 3 3 3 2 2 1 1 1 2 2 2
5 5 5 5 5 4 4 4 4 4 4 4 4 5 6 5 8 8 5 4 4 4 4 4 5 7 9 9 10 9 7 4 3 3 3 2 2 1 1 1 1 1 1
5 5 5 5 5 4 5 5 4 4 4 5 5 6 6 7 9 9 8 4 5 5 5 4 5 6 5 4 6 7 8 8 6 3 3 2 2 1 1 1 1 1 1
6 5 5 5 5 5 5 5 5 4 4 4 5 5 5 6 8 8 7 4 4 4 4 5 5 5 6 5 4 6 6 5 5 3 3 2 2 2 1 0 1 2 1
6 5 5 5 5 5 5 5 4 4 4 4 4 4 5 5 7 7 5 2 3 4 5 6 5 5 7 7 4 4 4 3 5 6 5 3 3 3 3 2 1 1 1
6 5 5 5 5 5 5 5 4 4 4 4 4 4 5 5 6 7 6 2 3 3 4 5 8 7 7 7 3 3 3 2 2 3 3 3 3 3 4 3 2 1 1
6 6 6 6 5 5 5 4 4 4 4 4 4 4 4 5 6 7 7 3 2 2 3 3 4 6 6 6 4 2 2 1 0 1 2 3 2 2 2 2 2 2 2
6 6 6 5 5 5 5 4 4 4 4 4 3 4 4 4 5 5 6 6 4 3 3 3 3 4 4 5 4 4 4 3 1 2 2 2 2 2 2 2 1 1 1
6 5 5 5 4 5 5 4 4 3 3 3 3 3 3 3 4 5 5 5 6 3 3 3 3 1 1 1 2 3 2 1 1 2 2 2 1 1 1 1 0 0 0
5 5 4 4 4 4 3 2 2 2 2 2 3 3 3 3 3 2 1 2 3 2 2 2 2 1 1 1 1 1 1 1 1 1 1 1 1 1 1 1 1 0 1
5 4 4 4 4 4 4 3 2 3 2 1 1 2 3 3 2 1 1 1 0 1 0 1 1 1 1 1 1 1 1 1 1 1 1 1 1 1 1 1 1 1 1
5 4 4 4 4 5 5 5 9 6 7 7 6 4 4 5 6 4 3 3 3 2 0 1 1 1 1 1 1 1 1 1 1 1 1 1 1 1 0 1 1 1 1
3 4 3 4 4 4 5 5 5 4 6 7 6 6 6 6 5 3 2 2 2 0 1 1 1 1 1 1 1 1 1 1 1 1 1 1 1 1 0 0 1 1 1
3 3 3 3 4 4 5 5 5 5 4 4 3 4 5 5 3 2 2 1 1 2 2 1 1 1 1 1 1 1 1 1 0 1 1 1 1 1 1 1 1 1 1
3 2 2 3 3 3 4 4 4 5 5 5 5 4 4 4 2 2 2 2 3 2 2 2 1 1 1 1 1 0 0 0 0 1 1 1 1 1 1 2 1 1 1
2 3 2 2 3 4 4 3 4 4 4 5 5 5 5 5 4 4 4 4 3 2 1 1 1 1 1 1 1 1 1 1 1 1 0 1 1 2 2 2 2 2 2
2 3 3 3 3 3 3 3 3 3 4 4 4 5 7 6 5 5 5 4 3 2 1 1 1 2 2 1 1 1 1 0 0 1 1 1 2 2 2 2 2 2 2
2 2 2 3 2 2 3 3 4 4 3 4 4 6 8 5 3 3 3 3 3 2 2 1 1 1 1 1 1 0 0 0 1 1 1 2 2 2 2 2 2 2 3
3 3 3 3 3 3 3 3 3 3 3 3 4 4 5 4 4 2 2 2 2 2 1 1 1 1 0 1 0 1 1 1 1 1 2 2 3 3 3 2 3 4 4
3 3 4 3 3 3 3 3 3 3 3 3 3 3 4 4 3 2 2 2 2 2 1 1 1 1 1 1 1 1 2 2 2 2 3 3 3 3 3 3 4 4 4
3 3 4 4 4 4 3 3 3 2 2 2 2 2 3 3 3 2 2 2 2 2 2 2 1 1 2 2 2 3 4 4 3 3 2 2 4 4 4 5 4 4 4
3 3 3 3 3 3 3 2 2 2 2 2 2 2 2 2 3 2 2 2 2 2 2 2 2 2 3 2 3 5 4 2 1 1 2 3 4 4 5 4 6 5 6
Wind_Direction
149 141 133 140 150 142 113 84 66 55 50 34 23 24 35 35 26 30 34 28 30 24 11 9 349 347 343 340 346 6 54 111 137 77 81 84 89 94 100 102 105 98 92
150 142 142 138 131 124 108 85 78 80 72 54 48 38 36 48 46 47 40 39 37 30 21 16 3 2 9 11 9 23 47 122 141 141 105 89 92 99 109 104 104 106 102
153 149 148 145 134 117 99 88 82 81 77 66 62 57 44 48 52 58 57 47 43 38 33 28 21 19 14 11 22 22 27 85 126 132 125 110 103 106 108 101 98 97 106
148 148 146 143 137 127 116 105 92 86 78 70 65 63 60 56 46 53 66 63 58 54 48 42 35 36 29 21 34 28 47 74 98 110 108 95 78 82 115 120 112 97 98
139 145 145 139 132 122 113 106 96 85 81 74 68 64 60 60 43 45 58 66 61 59 57 59 60 65 60 52 54 42 44 66 85 95 95 83 71 69 95 118 119 117 87
138 136 130 129 128 123 116 105 94 85 79 79 75 71 64 57 44 44 48 61 60 61 63 65 75 70 71 70 69 61 55 62 69 85 86 89 72 49 60 117 123 132 118
131 125 127 129 127 126 122 115 106 96 89 85 81 81 75 55 43 39 41 51 61 54 50 44 51 57 52 62 75 71 62 57 66 88 87 77 76 37 32 86 91 102 138
133 129 129 132 129 120 111 109 105 102 98 90 85 85 84 63 44 40 38 62 70 64 57 52 56 49 38 36 62 70 65 53 58 78 83 76 68 34 358 108 141 143 136
139 137 133 134 131 129 124 118 114 110 104 98 92 89 85 68 42 39 27 73 82 72 68 58 53 52 34 34 62 76 78 82 76 77 81 88 88 58 39 40 45 92 104
139 133 128 126 130 131 127 121 115 115 114 107 98 95 93 81 51 41 27 61 94 92 87 75 61 53 42 34 50 70 63 42 61 88 88 89 91 80 61 47 22 11 38
131 128 124 122 123 124 121 122 126 125 120 114 108 100 93 86 74 50 39 37 47 75 91 83 64 47 42 32 28 43 32 340 323 114 106 95 80 73 68 56 38 45 39
124 127 127 129 134 132 129 130 137 139 136 132 130 123 105 95 79 66 55 46 37 59 72 84 85 62 44 27 21 10 357 346 27 82 87 84 82 74 66 66 70 78 91
128 130 130 129 123 131 141 149 157 161 161 152 149 137 123 117 102 84 74 60 55 63 75 93 112 121 53 22 18 358 352 2 33 63 72 79 90 105 108 91 98 200 144
135 137 135 136 131 122 125 137 148 154 161 150 144 144 134 127 116 114 135 125 110 113 123 134 161 200 281 342 356 352 7 20 29 43 65 91 110 107 100 93 64 35 61
143 144 143 145 143 128 105 63 81 70 69 114 117 122 131 133 120 130 132 101 56 55 117 175 176 173 182 177 153 133 64 51 32 15 36 57 59 61 49 51 15 360 23
154 160 164 164 154 147 136 105 56 69 78 77 77 89 96 112 124 102 77 56 45 50 26 212 180 173 168 148 140 140 115 73 14 9 23 31 33 52 21 339 3 16 14
160 171 176 169 166 163 158 152 138 96 73 70 78 94 114 130 125 113 81 39 2 23 246 231 169 154 145 127 127 84 84 83 27 3 4 358 343 336 351 350 2 8 356
171 178 189 173 172 169 167 168 164 159 150 130 102 121 141 150 148 136 94 53 246 220 227 227 188 153 135 112 77 77 86 96 36 312 346 351 342 342 350 343 360 359 333
180 184 189 172 170 170 169 171 167 166 159 147 143 148 168 165 169 190 175 227 248 227 202 203 206 159 126 124 99 55 71 170 291 302 330 321 320 320 315 308 316 319 298
167 166 180 177 171 169 172 175 171 167 162 157 166 164 161 174 187 191 202 230 250 248 232 209 190 164 142 149 168 217 217 209 228 250 262 305 310 312 315 317 317 309 292
160 154 167 176 173 172 174 177 175 180 183 176 168 163 169 187 198 197 196 206 225 237 235 230 187 183 179 193 205 227 237 234 9 320 335 328 313 310 305 304 303 307 312
165 167 181 180 173 174 184 187 187 187 191 180 166 166 177 201 219 211 193 191 204 208 209 217 218 195 158 157 173 250 294 55 334 324 319 308 300 300 301 304 313 319 318
185 181 183 182 173 170 189 197 197 200 197 185 176 167 178 208 223 214 196 187 187 189 185 206 229 216 137 126 123 80 32 359 353 349 333 324 315 307 307 311 311 309 305
196 194 190 184 186 185 193 198 198 203 204 203 192 184 188 199 215 215 203 191 192 183 174 198 220 189 145 125 97 83 65 47 13 356 349 327 311 309 314 311 305 308 308
206 200 196 196 196 194 195 200 199 206 214 209 204 209 201 189 195 202 197 191 199 200 200 196 180 166 142 121 99 91 88 72 49 2 331 309 305 310 308 303 300 303 304
213 202 196 195 187 183 184 189 193 201 209 220 231 226 216 211 206 201 188 186 200 196 192 184 162 143 143 146 118 112 116 108 79 348 306 295 299 301 306 304 308 309 304